This demonstration page uses our WeatherBlox Daily Observations layout. Learn more.

Left ArrowRight Arrow

39.51506, -84.39828

Hourly Observations for March 1, 2016

Temp ( °F °C ) Dew Point ( °F °C ) Humidity (%) Winds ( mph kmh ) Pressure ( in mb ) Visibility ( mi km ) Precip ( " mm )
12:15 am 00:15 Clear 37 2.6 32 0.1 84 84 Calm 30.06 1018 10 16 0.00 0.00
12:35 am 00:35 Clear 37 2.6 32 -0.1 83 83 Calm 30.06 1018 10 16 0.00 0.00
12:55 am 00:55 Clear 37 2.6 32 0 83 83 Calm 30.03 1017 10 16 0.00 0.00
1:15 am 01:15 Clear 36 2.3 32 -0.2 84 84 Calm 30.03 1017 10 16 0.00 0.00
1:35 am 01:35 Clear 36 2 31 -0.5 84 84 Calm 30.03 1017 10 16 0.00 0.00
1:55 am 01:55 Clear 34 1.2 30 -1.1 85 85 Calm 30.03 1017 10 16 0.00 0.00
2:15 am 02:15 Clear 34 1.2 30 -1.1 85 85 Calm 30.03 1017 10 16 0.00 0.00
2:35 am 02:35 Clear 34 1.2 31 -0.7 87 87 Calm 30.00 1016 10 16 0.00 0.00
2:55 am 02:55 Clear 34 1.2 31 -0.7 87 87 Calm 30.00 1016 10 16 0.00 0.00
3:15 am 03:15 Clear 34 1.2 31 -0.6 88 88 Calm 30.00 1016 10 16 0.00 0.00
3:35 am 03:35 Clear 34 1.2 31 -0.7 87 87 Calm 29.97 1015 10 16 0.00 0.00
3:55 am 03:55 Clear 34 1.2 31 -0.7 87 87 Calm 29.97 1015 10 16 0.00 0.00
4:15 am 04:15 Clear 34 1.2 31 -0.7 87 87 Calm 29.97 1015 10 16 0.00 0.00
4:35 am 04:35 Clear 34 1.2 31 -0.6 88 88 Calm 29.97 1015 10 16 0.00 0.00
4:55 am 04:55 Clear 34 1.2 31 -0.5 89 89 Calm 29.97 1015 10 16 0.00 0.00
5:15 am 05:15 Clear 32 0 29 -1.8 88 88 Calm 29.97 1015 10 16 0.00 0.00
5:35 am 05:35 Clear 33 0.3 30 -1.3 89 89 Calm 29.97 1015 10 16 0.00 0.00
5:55 am 05:55 Clear 33 0.6 30 -1 89 89 Calm 29.97 1015 10 16 0.00 0.00
6:15 am 06:15 Clear 32 0 29 -1.8 88 88 NE 3 6 29.97 1015 10 16 0.00 0.00
6:35 am 06:35 Clear 32 -0.2 28 -2 88 88 Calm 29.97 1015 10 16 0.00 0.00
6:55 am 06:55 Clear 34 1.2 31 -0.5 89 89 Calm 29.94 1014 10 16 0.00 0.00
7:15 am 07:15 Sunny 32 0 29 -1.7 88 88 Calm 29.94 1014 10 16 0.00 0.00
7:35 am 07:35 Sunny 34 1.2 31 -0.4 89 89 Calm 29.94 1014 10 16 0.00 0.00
7:55 am 07:55 Partly Cloudy 34 1.2 31 -0.5 89 89 Calm 29.94 1014 10 16 0.00 0.00
8:15 am 08:15 Sunny 34 1.2 31 -0.5 89 89 Calm 29.94 1014 10 16 0.00 0.00
8:35 am 08:35 Sunny 37 2.6 33 0.5 86 86 Calm 29.88 1012 10 16 0.00 0.00
8:55 am 08:55 Sunny 39 4.1 35 1.8 85 85 Calm 29.88 1012 10 16 0.00 0.00
9:15 am 09:15 Sunny 42 5.5 35 1.6 76 76 Calm 29.85 1011 10 16 0.00 0.00
9:35 am 09:35 Sunny 44 6.4 35 1.9 73 73 Calm 29.85 1011 10 16 0.00 0.00
9:55 am 09:55 Partly Cloudy 47 8.2 38 3.2 71 71 Calm 29.85 1011 10 16 0.00 0.00
10:15 am 10:15 Mostly Cloudy 49 9.6 39 3.8 67 67 WSW 3 6 29.83 1010 10 16 0.00 0.00
10:35 am 10:35 Cloudy with Rain 49 9.6 37 2.7 62 62 SW 8 13 29.83 1010 10 16 0.00 0.00
10:55 am 10:55 Cloudy 49 9.6 37 3 64 64 S 5 7 29.80 1009 10 16 0.00 0.00
11:15 am 11:15 Mostly Cloudy 50 10 38 3.2 63 63 SSW 3 6 29.80 1009 10 16 0.00 0.00
11:35 am 11:35 Mostly Cloudy 55 12.5 40 4.2 57 57 S 8 13 29.74 1007 10 16 0.00 0.00
11:55 am 11:55 Cloudy with Light Rain 55 12.5 43 5.9 64 64 S 9 15 29.71 1006 10 16 0.00 0.00
12:15 pm 12:15 Cloudy 55 12.5 45 7.1 70 70 WNW 16 26 29.74 1007 10 16 0.00 0.00
12:35 pm 12:35 Cloudy 49 9.7 39 3.8 67 67 WNW 9 15 29.77 1008 10 16 0.00 0.00
12:55 pm 12:55 Cloudy with Light Rain 51 10.3 40 4.2 66 66 S 5 7 29.74 1007 10 16 0.00 0.00
1:15 pm 13:15 Cloudy with Light Rain 51 10.6 42 5.8 72 72 SSW 7 11 29.74 1007 10 16 0.00 0.00
1:35 pm 13:35 Cloudy with Light Snow 49 9.6 43 6.3 80 80 S 5 7 29.71 1006 3 4 0.00 0.00
1:55 pm 13:55 Cloudy with Light Snow 49 9.6 45 7 84 84 SSW 7 11 29.68 1005 2 3 0.00 0.00
2:15 pm 14:15 Cloudy with Snow 49 9.6 45 7.3 86 86 SSW 5 7 29.65 1004 3 5 0.00 0.00
2:35 pm 14:35 Cloudy with Light Snow 49 9.6 45 7.4 86 86 SSW 6 9 29.65 1004 4 6 0.00 0.00
2:55 pm 14:55 Cloudy with Light Rain 50 10.1 46 8 87 87 SSW 9 15 29.65 1004 5 8 0.00 0.00
3:15 pm 15:15 Cloudy with Light Rain 51 10.3 47 8.2 87 87 SSW 10 17 29.62 1003 7 11 0.00 0.00
3:35 pm 15:35 Cloudy with Light Rain 52 11 48 9 88 88 SW 9 15 29.62 1003 10 16 0.00 0.00
3:55 pm 15:55 Cloudy with Drizzle 52 11 48 9 88 88 SW 8 13 29.62 1003 5 8 0.00 0.00
4:15 pm 16:15 Cloudy with Drizzle 55 12.5 51 10.3 87 87 WSW 16 26 29.59 1002 3 4 0.00 0.00
4:35 pm 16:35 Cloudy with Drizzle 55 12.5 50 10.2 86 86 WSW 17 28 29.59 1002 4 6 0.00 0.00
4:55 pm 16:55 Cloudy with Light Rain 52 11.3 48 8.9 85 85 W 23 37 29.62 1003 4 6 0.00 0.00
5:15 pm 17:15 Cloudy with Drizzle 51 10.8 45 7.3 79 79 W 15 24 29.65 1004 10 16 0.00 0.00
5:35 pm 17:35 Cloudy with Light Snow 49 9.6 43 6 78 78 W 15 24 29.65 1004 10 16 0.00 0.00
5:55 pm 17:55 Cloudy 49 9.6 43 6 78 78 WNW 21 33 29.68 1005 10 16 0.00 0.00
6:15 pm 18:15 Cloudy 44 6.8 38 3.5 80 80 W 21 33 29.71 1006 10 16 0.00 0.00
6:35 pm 18:35 Cloudy 42 5.5 36 2.3 80 80 W 26 43 29.74 1007 10 16 0.00 0.00
6:55 pm 18:55 Clear 52 11 29 -1.8 41 41 WSW 8 13 30.03 1017 10 16 0.00 0.00
7:15 pm 19:15 Cloudy 39 4 33 0.5 78 78 WNW 26 43 29.80 1009 10 16 0.00 0.00
7:35 pm 19:35 Cloudy 37 2.6 31 -0.6 80 80 WNW 20 31 29.83 1010 10 16 0.00 0.00
7:55 pm 19:55 Cloudy 36 2.3 29 -1.4 77 77 WNW 29 46 29.88 1012 10 16 0.00 0.00
8:15 pm 20:15 Cloudy 34 1.2 27 -3 74 74 W 28 44 29.88 1012 10 16 0.00 0.00
8:35 pm 20:35 Cloudy 34 1.2 26 -3.5 71 71 WNW 25 41 29.88 1012 10 16 0.00 0.00
8:55 pm 20:55 Cloudy 34 1.2 26 -3.4 72 72 NW 23 37 29.91 1013 10 16 0.00 0.00
9:15 pm 21:15 Cloudy 34 1.2 25 -4 69 69 WNW 22 35 29.94 1014 10 16 0.00 0.00
9:35 pm 21:35 Cloudy 34 1.2 23 -5 64 64 WNW 17 28 29.94 1014 10 16 0.00 0.00
9:55 pm 21:55 Cloudy 32 0 21 -5.9 65 65 WNW 23 37 29.94 1014 10 16 0.00 0.00
10:15 pm 22:15 Cloudy 32 0 21 -6.3 63 63 WNW 16 26 29.97 1015 10 16 0.00 0.00
10:35 pm 22:35 Cloudy 32 0 21 -6.2 63 63 NW 15 24 30.00 1016 10 16 0.00 0.00
10:55 pm 22:55 Cloudy 32 0 20 -6.5 62 62 WNW 23 37 30.00 1016 10 16 0.00 0.00
11:15 pm 23:15 Cloudy 32 0 20 -6.5 62 62 NW 15 24 30.00 1016 10 16 0.00 0.00
11:35 pm 23:35 Cloudy 32 0 19 -7 60 60 NW 10 17 30.03 1017 10 16 0.00 0.00
11:55 pm 23:55 Cloudy 32 0 20 -6.8 61 61 NW 13 20 30.03 1017 10 16 0.00 0.00

Powered by AerisWeather